This is the latest recevied weather packets stored in our database for station/object DG4DAZ-6. If no packets are shown the sender has not sent any weather packets the latest 1 day(s).
| Time | Temp. | Humidity | Pressure | Rain* | Wind** | Luminosity | Snow |
|---|---|---|---|---|---|---|---|
| 1778090635 | 6.67° C | 97% | 1007.5 hPa | 0 mm | - | 11 W/m² | - |
| 1778090034 | 6.67° C | 97% | 1007.3 hPa | 0 mm | - | 9 W/m² | - |
| 1778082834 | 7.22° C | 97% | 1006.6 hPa | 0.76 mm | - | 69 W/m² | - |
| 1778082236 | 7.22° C | 97% | 1006.6 hPa | 0.51 mm | - | 79 W/m² | - |
| 1778080436 | 7.22° C | 97% | 1006.4 hPa | 0.25 mm | - | 80 W/m² | - |
| 1778076236 | 7.78° C | 97% | 1006 hPa | 0.51 mm | - | 113 W/m² | - |
| 1778075636 | 7.78° C | 97% | 1006.1 hPa | 0.51 mm | - | 101 W/m² | - |
| 1778075035 | 7.78° C | 97% | 1006.1 hPa | 0.76 mm | - | 111 W/m² | - |
| 1778073235 | 7.78° C | 97% | 1006 hPa | 0.25 mm | - | 101 W/m² | - |
| 1778069635 | 8.89° C | 97% | 1005.5 hPa | 0 mm | - | 102 W/m² | - |
| 1778069034 | 8.33° C | 97% | 1005.4 hPa | 0 mm | - | 85 W/m² | - |
| 1778068435 | 8.89° C | 97% | 1005.3 hPa | 0 mm | - | 96 W/m² | - |
| 1778067836 | 8.89° C | 97% | 1005.2 hPa | 0 mm | - | 100 W/m² | - |
| 1778067236 | 8.89° C | 97% | 1005.3 hPa | 0 mm | - | 113 W/m² | - |
| 1778064835 | 8.89° C | 97% | 1005.2 hPa | 0 mm | - | 131 W/m² | - |
| 1778062435 | 8.89° C | 97% | 1004.8 hPa | 0 mm | - | 91 W/m² | - |
| 1778061236 | 8.89° C | 97% | 1004.8 hPa | 0 mm | - | 132 W/m² | - |
| 1778059435 | 8.89° C | 97% | 1004.8 hPa | 0 mm | - | 76 W/m² | - |
| 1778058836 | 8.89° C | 97% | 1004.8 hPa | 0.25 mm | - | 82 W/m² | - |
| 1778058235 | 8.89° C | 97% | 1004.6 hPa | 0.25 mm | - | 111 W/m² | - |
| 1778057635 | 8.89° C | 97% | 1004.4 hPa | 0.25 mm | - | 114 W/m² | - |
| 1778056435 | 8.89° C | 97% | 1004.3 hPa | 0.25 mm | - | 109 W/m² | - |
| 1778055835 | 8.89° C | 97% | 1004.1 hPa | 0.25 mm | - | 131 W/m² | - |
| 1778055236 | 8.33° C | 97% | 1004.2 hPa | 0 mm | - | 119 W/m² | - |
| 1778054035 | 8.33° C | 97% | 1004.2 hPa | 0.51 mm | - | 69 W/m² | - |
* Rain latest hour (hover to see other rain measurements)
** Current wind speed in m/s (hover to see current wind gust speed)